[[{"header":{"parameterUnit":"m.s-1","parameterCategory":1,"la1":30.2991,"la2":30.254,"lo1":-89.0895,"lo2":-89.0444,"dy":0.0017,"dx":0.0017,"nx":28,"ny":28,"refTime":"2024-03-29T21:00:00:Z","depth":0,"parameterNumber":2,"parameterNumberName":"U-component_of_WINDS"},"data":[0,0,0,0,0,0,0,0,0,0,0,0,0,0,0,0,0,0,0,0,0,0,0,0,0,0,0,0,0,0,0,0,0,0,0,0,0,0,0,0,0,0,0,0,0,0,0,0,0,0,0,0,0,0,0,0,0,0,-3.8412,-3.8411,0,-3.8394,-3.8394,-3.8394,-3.8296,-3.8293,-3.8291,-3.8289,-3.8272,-3.8273,-3.8275,0,0,0,0,0,0,0,0,0,0,0,0,0,-3.8363,-3.8364,-3.8412,-3.8411,-3.8411,-3.8394,-3.8394,-3.8394,-3.8296,-3.8293,-3.829,-3.8288,-3.8271,-3.8273,-3.8275,0,0,0,0,0,0,0,0,0,0,0,0,0,-3.8369,-3.8365,-3.8412,-3.836,-3.8356,-3.8394,-3.8394,-3.8394,-3.8297,-3.8293,-3.8289,-3.8286,-3.827,-3.8273,-3.8275,-3.8362,0,0,-3.8283,-3.8285,0,0,0,0,0,0,0,0,-3.8369,-3.8371,-3.8368,-3.8364,-3.8359,-3.8343,-3.837,-3.8383,-3.8297,-3.8319,-3.8289,-3.8284,-3.8298,-3.8298,-3.8303,-3.8361,-3.8361,-3.8284,-3.8285,-3.8286,-3.8287,0,0,0,0,0,0,0,-3.8368,-3.8371,-3.8405,-3.8368,-3.8362,-3.8339,-3.8336,-3.8372,-3.8329,-3.8317,-3.831,-3.8309,-3.8295,-3.8301,-3.8302,-3.836,-3.8284,-3.8286,-3.8287,-3.8288,-3.8491,-3.8494,0,0,0,0,0,0,-3.8375,-3.8371,-3.8405,-3.8404,-3.8355,-3.8343,-3.8339,-3.8352,-3.8328,-3.8321,-3.8312,-3.8304,-3.8298,-3.8299,-3.8301,-3.8401,-3.8286,-3.8289,-3.829,-3.8487,-3.8492,-3.8496,0,0,0,0,0,0,-3.8374,-3.8379,-3.8406,-3.8386,-3.8387,-3.8347,-3.8362,-3.8353,-3.8359,-3.8324,-3.8316,-3.8325,-3.8295,-3.8297,-3.8348,-3.8399,-3.829,-3.8292,-3.8482,-3.8488,-3.8494,-3.8601,0,0,0,0,0,0,-3.8373,-3.8379,-3.8411,-3.8387,-3.8389,-3.8453,-3.8365,-3.8356,-3.8363,-3.8353,-3.8335,-3.8328,-3.8293,-3.8345,-3.8351,-3.84,-3.8294,-3.8478,-3.8485,-3.8492,-3.8593,-3.861,-3.8625,0,0,0,0,0,-3.8372,-3.8442,-3.8413,-3.8417,-3.8427,-3.8456,-3.8457,-3.8414,-3.8368,-3.84,-3.8378,-3.8329,-3.8393,-3.8351,-3.8356,-3.8408,-3.8474,-3.8483,-3.8491,-3.8586,-3.8607,-3.8624,0,0,0,0,0,0,-3.8472,-3.8437,-3.8405,-3.8469,-3.8466,-3.8439,-3.8477,-3.8437,-3.8447,-3.8437,-3.8384,-3.8381,-3.844,-3.8429,-3.8382,-3.8491,-3.8425,-3.8436,-3.8495,-3.8515,-3.853,-3.853,-3.8296,0,0,0,0,0,-3.8501,-3.8527,-3.8496,-3.8555,-3.8556,-3.8518,-3.8528,-3.8496,-3.849,-3.8488,-3.847,-3.8468,-3.8487,-3.8501,-3.8517,-3.8592,-3.8587,-3.8631,-3.8647,-3.866,-3.8669,-3.8708,-3.8727,-3.8524,-3.8524,-3.8524,0,0,-3.8562,-3.8547,-3.8566,-3.8575,-3.8569,-3.8597,-3.8517,-3.8549,-3.857,-3.8493,-3.8539,-3.8527,-3.8521,-3.8585,-3.8612,-3.8578,-3.8724,-3.8671,-3.8682,-3.8683,-3.8719,-3.8738,-3.8756,-3.853,-3.8528,-3.8528,0,0,-3.8687,-3.8679,-3.8727,-3.8723,-3.8715,-3.869,-3.8702,-3.8682,-3.8671,-3.8717,-3.866,-3.8685,-3.872,-3.8717,-3.8721,-3.885,-3.8805,-3.8857,-3.8938,-3.8977,-3.8993,-3.9007,-3.9052,-3.9069,-3.8866,-3.8866,-3.8866,0,-3.8763,-3.8803,-3.8758,-3.8794,-3.88,-3.8734,-3.8784,-3.8782,-3.8781,-3.8787,-3.8749,-3.8792,-3.8783,-3.8846,-3.8877,-3.8883,-3.8895,-3.8857,-3.8995,-3.9008,-3.9021,-3.9063,-3.908,-3.8872,-3.8872,-3.8871,-3.887,0,-3.8897,-3.8926,-3.8967,-3.8966,-3.8978,-3.9021,-3.8983,-3.9,-3.8969,-3.8948,-3.8997,-3.8984,-3.8997,-3.901,-3.8979,-3.9069,-3.9048,-3.9004,-3.8936,-3.9047,-3.9086,-3.9102,-3.8881,-3.8879,-3.8877,-3.8876,0,0,-3.908,-3.9057,-3.9073,-3.9072,-3.9061,-3.9082,-3.9124,-3.9136,-3.9152,-3.9155,-3.9188,-3.922,-3.918,-3.9184,-3.9153,-3.9188,-3.929,-3.9139,-3.9138,-3.9166,-3.9389,-3.9421,-3.944,-3.9262,-3.9265,-3.9267,-3.9389,0,-3.9198,-3.9266,-3.9229,-3.9302,-3.9329,-3.9268,-3.9305,-3.9302,-3.9285,-3.9306,-3.9287,-3.931,-3.9256,-3.9258,-3.929,-3.9271,-3.9334,-3.9262,-3.9292,-3.9294,-3.9293,-3.9461,-3.9494,-3.9609,-3.9404,-3.9407,-3.9408,0,-3.9344,-3.9353,-3.943,-3.9415,-3.9424,-3.9458,-3.9467,-3.9488,-3.9485,-3.947,-3.9477,-3.9438,-3.9479,-3.9414,-3.947,-3.9422,-3.9433,-3.9426,-3.9429,-3.9428,-3.9356,-3.9462,-3.9644,-3.9661,-3.9432,-3.943,-3.9429,0,-3.9469,-3.9501,-3.955,-3.9552,-3.9536,-3.9561,-3.9556,-3.9549,-3.956,-3.957,-3.9576,-3.9591,-3.9598,-3.9611,-3.9577,-3.9533,-3.9638,-3.957,-3.9626,-3.9627,-3.9648,-3.9647,-3.9832,-3.9659,-3.9659,-3.9659,-3.9658,0,-3.9603,-3.9652,-3.9606,-3.9636,-3.969,-3.9648,-3.9703,-3.9691,-3.9686,-3.9714,-3.9664,-3.9692,-3.9647,-3.967,-3.9645,-3.9695,-3.9699,-3.9689,-3.9681,-3.9692,-3.9693,-3.9696,-3.9686,-3.9663,-3.9662,-3.9661,-3.9661,0,-3.9749,-3.9721,-3.9771,-3.9753,-3.975,-3.979,-3.9775,-3.9803,-3.9784,-3.982,-3.9826,-3.9797,-3.9822,-3.9791,-3.9813,-3.9796,-3.9864,-3.9846,-3.9865,-3.9859,-3.9916,-3.991,-4.0108,-4.0132,-3.9946,-3.9948,-3.9949,0,-3.9835,-3.9872,-3.9859,-3.9874,-3.9872,-3.9897,-3.9908,-3.987,-3.9884,-3.9885,-3.9913,-3.9934,-3.9949,-3.9992,-3.9973,-3.9991,-3.9971,-4.0039,-3.9973,-3.9983,-3.997,-3.9967,-3.9971,-4.0052,-4.0054,-4.0056,-4.0057,0,-3.9992,-3.9977,-3.9994,-4.0009,-4.0024,-4.0033,-4.0039,-4.0054,-4.0014,-4.0033,-4.0058,-4.007,-4.0094,-4.0116,-4.0129,-4.0124,-4.0084,-4.0079,-4.0092,-4.0103,-4.0112,-4.0106,-3.9899,-4.0074,-4.0072,-4.0071,-4.007,-4.0069,-4.0109,-4.0139,-4.0135,-4.0157,-4.0158,-4.0165,-4.0191,-4.0176,-4.0197,-4.0213,-4.019,-4.0222,-4.022,-4.0233,-4.0234,-4.0259,-4.0229,-4.0249,-4.0254,-4.0259,-4.0267,-4.011,-4.0261,-4.0261,-4.026,-4.026,-4.0259,0,-4.0261,-4.0257,-4.0278,-4.0288,-4.0306,-4.0269,-4.0274,-4.0292,-4.0321,-4.0323,-4.0339,-4.0369,-4.0391,-4.0375,-4.0394,-4.0417,-4.04,-4.0423,-4.042,-4.0419,-4.0293,-4.0278,-4.0437,-4.0437,-4.0437,-4.0437,-4.0437,-4.0437,-4.0342,-4.0391,-4.0376,-4.0426,-4.042,-4.0451,-4.0458,-4.0464,-4.0466,-4.0502,-4.052,-4.051,-4.0505,-4.0524,-4.0543,-4.0537,-4.0546,-4.0576,-4.0564,-4.0446,-4.0428,-4.0411,-4.0397,-4.0578,-4.0579,-4.0688,-4.0689,-4.069]},{"header":{"parameterUnit":"m.s-1","parameterCategory":1,"la1":30.2991,"la2":30.254,"lo1":-89.0895,"lo2":-89.0444,"dy":0.0017,"dx":0.0017,"nx":28,"ny":28,"refTime":"2024-03-29T21:00:00:Z","depth":0,"parameterNumber":3,"parameterNumberName":"V-component_of_WINDS"},"data":[0,0,0,0,0,0,0,0,0,0,0,0,0,0,0,0,0,0,0,0,0,0,0,0,0,0,0,0,0,0,0,0,0,0,0,0,0,0,0,0,0,0,0,0,0,0,0,0,0,0,0,0,0,0,0,0,0,0,2.814,2.814,0,2.815,2.815,2.815,2.8208,2.8209,2.821,2.8212,2.8217,2.8216,2.8215,0,0,0,0,0,0,0,0,0,0,0,0,0,2.8167,2.8167,2.814,2.814,2.814,2.815,2.815,2.815,2.8207,2.8209,2.8211,2.8212,2.8218,2.8216,2.8215,0,0,0,0,0,0,0,0,0,0,0,0,0,2.8164,2.8166,2.814,2.817,2.8173,2.815,2.815,2.815,2.8207,2.8209,2.8211,2.8213,2.8218,2.8216,2.8215,2.8162,0,0,2.8209,2.8209,0,0,0,0,0,0,0,0,2.8164,2.8163,2.8165,2.8168,2.8171,2.818,2.8162,2.8154,2.8207,2.8194,2.8212,2.8214,2.8203,2.8202,2.8199,2.8162,2.8162,2.8209,2.8208,2.8207,2.8207,0,0,0,0,0,0,0,2.8164,2.8163,2.8144,2.8165,2.8169,2.8182,2.8184,2.8161,2.8186,2.8195,2.8199,2.82,2.8205,2.8201,2.82,2.8162,2.8209,2.8208,2.8207,2.8206,2.8084,2.8082,0,0,0,0,0,0,2.8161,2.8163,2.8143,2.8144,2.8173,2.818,2.8182,2.8175,2.8187,2.8191,2.8198,2.8203,2.8203,2.8202,2.82,2.814,2.8207,2.8206,2.8205,2.8086,2.8084,2.8081,0,0,0,0,0,0,2.8161,2.8159,2.8143,2.8155,2.8154,2.8177,2.8169,2.8174,2.817,2.8189,2.8194,2.819,2.8205,2.8203,2.8172,2.8141,2.8205,2.8203,2.8089,2.8086,2.8083,2.8019,0,0,0,0,0,0,2.8162,2.8158,2.8139,2.8154,2.8153,2.8115,2.8167,2.8173,2.8168,2.8174,2.8183,2.8186,2.8206,2.8174,2.817,2.814,2.8202,2.8092,2.8088,2.8084,2.8024,2.8014,2.8006,0,0,0,0,0,2.8163,2.8119,2.8138,2.8135,2.8129,2.8113,2.8112,2.8137,2.8165,2.8146,2.8158,2.8186,2.8146,2.817,2.8166,2.8135,2.8094,2.8089,2.8084,2.8028,2.8016,2.8006,0,0,0,0,0,0,2.8098,2.8122,2.8142,2.8103,2.8106,2.8123,2.8098,2.8124,2.8117,2.8123,2.8153,2.8155,2.8119,2.8124,2.8152,2.8086,2.8125,2.8119,2.8084,2.8072,2.8063,2.8062,2.8201,0,0,0,0,0,2.8079,2.8065,2.8086,2.8049,2.805,2.8074,2.8068,2.8088,2.8091,2.8092,2.8102,2.8103,2.8091,2.8082,2.8072,2.8026,2.8029,2.8003,2.7993,2.7986,2.798,2.7957,2.7945,2.8065,2.8065,2.8065,0,0,2.804,2.8051,2.804,2.8037,2.8041,2.8025,2.8074,2.8055,2.8043,2.8088,2.806,2.8068,2.8071,2.8033,2.8016,2.8036,2.7948,2.798,2.7973,2.7971,2.795,2.7939,2.7929,2.8062,2.8063,2.8063,0,0,2.796,2.7968,2.7938,2.7943,2.795,2.7967,2.796,2.7974,2.7981,2.7954,2.7988,2.7974,2.7953,2.7954,2.7952,2.7876,2.7902,2.7872,2.7823,2.78,2.7791,2.7783,2.7756,2.7745,2.7866,2.7866,2.7866,0,2.791,2.7888,2.7919,2.7899,2.7896,2.794,2.791,2.7912,2.7914,2.7911,2.7934,2.791,2.7915,2.7878,2.786,2.7857,2.7849,2.787,2.779,2.7782,2.7775,2.7749,2.7739,2.7863,2.7863,2.7863,2.7864,0,2.7826,2.7811,2.7786,2.779,2.7786,2.776,2.7787,2.7778,2.7799,2.7813,2.7785,2.7794,2.7787,2.778,2.7799,2.7746,2.7758,2.7785,2.7824,2.7759,2.7736,2.7726,2.7857,2.7859,2.786,2.7861,0,0,2.7703,2.7728,2.7718,2.7721,2.7734,2.7722,2.7699,2.7694,2.7686,2.7687,2.7668,2.7651,2.7677,2.7674,2.7694,2.7674,2.7614,2.7704,2.7705,2.7687,2.7557,2.7536,2.7524,2.7632,2.763,2.7629,2.7556,0,2.7627,2.759,2.7619,2.7577,2.7563,2.7605,2.7586,2.7591,2.7604,2.7594,2.7608,2.7595,2.763,2.7629,2.7612,2.7625,2.7588,2.7631,2.7614,2.7613,2.7611,2.7512,2.7489,2.742,2.7547,2.7546,2.7545,0,2.7532,2.7532,2.7489,2.7506,2.7502,2.7483,2.7482,2.7472,2.7479,2.7491,2.749,2.7516,2.7494,2.7534,2.7505,2.7533,2.7528,2.7534,2.7532,2.753,2.7574,2.7506,2.7398,2.7387,2.7531,2.7532,2.7533,0,2.7447,2.7435,2.7409,2.741,2.743,2.7416,2.7423,2.7433,2.7429,2.7428,2.7425,2.7421,2.7418,2.7414,2.7438,2.7465,2.7406,2.7447,2.7414,2.7413,2.7397,2.7398,2.7286,2.7396,2.7396,2.7396,2.7396,0,2.7358,2.733,2.7371,2.7354,2.7324,2.7358,2.7327,2.7338,2.7347,2.7333,2.7369,2.7355,2.7388,2.7377,2.7396,2.7369,2.7368,2.7375,2.7381,2.7372,2.7371,2.7368,2.7373,2.7393,2.7394,2.7394,2.7395,0,2.7256,2.7283,2.7257,2.7279,2.7284,2.726,2.7279,2.7264,2.7281,2.7263,2.7261,2.7287,2.7276,2.7301,2.7293,2.7306,2.7267,2.728,2.7265,2.7268,2.7233,2.7236,2.7114,2.71,2.722,2.7218,2.7217,0,2.7197,2.7177,2.7198,2.7192,2.7198,2.7188,2.7185,2.7218,2.7213,2.7221,2.7205,2.7198,2.7194,2.7175,2.7193,2.7187,2.72,2.7158,2.7199,2.7192,2.7199,2.72,2.7198,2.7149,2.7148,2.7146,2.7145,0,2.709,2.7105,2.71,2.71,2.7096,2.7097,2.7101,2.7093,2.7129,2.7121,2.7112,2.7109,2.7103,2.7095,2.7095,2.7101,2.7128,2.7133,2.7125,2.7115,2.7107,2.711,2.7241,2.7135,2.7136,2.7137,2.7137,2.7138,2.7008,2.6992,2.7005,2.6999,2.7006,2.7009,2.6997,2.7014,2.7007,2.7006,2.7025,2.7012,2.7021,2.7024,2.7028,2.7017,2.7036,2.7024,2.7021,2.7017,2.7012,2.711,2.7017,2.7018,2.7018,2.7018,2.7018,0,2.6902,2.6913,2.6907,2.6913,2.6908,2.6937,2.6943,2.6937,2.6925,2.6932,2.6929,2.6919,2.6912,2.693,2.6927,2.6915,2.6927,2.6912,2.6913,2.6914,2.6995,2.7002,2.6902,2.6903,2.6903,2.6903,2.6903,2.6903,2.6846,2.6822,2.6839,2.6819,2.683,2.6819,2.682,2.6823,2.6829,2.6817,2.6813,2.6826,2.6837,2.6835,2.683,2.6836,2.6832,2.6813,2.6823,2.6897,2.6908,2.6919,2.6926,2.6812,2.6812,2.6743,2.6742,2.6742]}]]